THY7WG LTFM-LBWN

Flight info

Callsign THY7WG
Flight time 0h 36m
Altitude 34000
Route MAKOL1G/17R MAKOL T67 IVGOT
Aircraft A319/M-SDE3FGHIRWY/LB1

Departure

Time 2026-05-08 18:56
Airport İstanbul Airport (LTFM)

Arrival

Time 2026-05-08 19:32
Airport Varna Airport (LBWN)
Time Latitude Longitude Altitude Speed Heading
2026-05-08 18:27 41.27233 28.73649 333 ft 0 kts 359°
2026-05-08 18:40 41.27241 28.73649 333 ft 2 kts 359°
2026-05-08 18:41 41.27264 28.73649 333 ft 4 kts 359°
2026-05-08 18:41 41.27296 28.73641 333 ft 4 kts 298°
2026-05-08 18:41 41.27300 28.73581 333 ft 7 kts 283°
2026-05-08 18:41 41.27306 28.73484 333 ft 13 kts 266°
2026-05-08 18:42 41.27305 28.73352 333 ft 14 kts 271°
2026-05-08 18:42 41.27306 28.73211 333 ft 15 kts 271°
2026-05-08 18:42 41.27252 28.73106 333 ft 15 kts 184°
2026-05-08 18:42 41.27140 28.73111 333 ft 16 kts 180°
2026-05-08 18:43 41.27023 28.73110 333 ft 16 kts 181°
2026-05-08 18:43 41.26903 28.73109 333 ft 17 kts 180°
2026-05-08 18:43 41.26806 28.73109 333 ft 7 kts 179°
2026-05-08 18:43 41.26794 28.73110 333 ft 0 kts 180°
2026-05-08 18:44 41.26783 28.73110 333 ft 2 kts 181°
2026-05-08 18:44 41.26765 28.73109 333 ft 0 kts 181°
2026-05-08 18:44 41.26752 28.73109 333 ft 6 kts 180°
2026-05-08 18:44 41.26734 28.73022 333 ft 13 kts 319°
2026-05-08 18:45 41.26831 28.72998 333 ft 15 kts
2026-05-08 18:45 41.26898 28.72998 333 ft 5 kts 360°
2026-05-08 18:45 41.26946 28.72997 333 ft 7 kts 360°
2026-05-08 18:45 41.27008 28.72996 333 ft 9 kts 356°
2026-05-08 18:46 41.27109 28.72993 333 ft 19 kts 360°
2026-05-08 18:46 41.27245 28.72990 333 ft 19 kts
2026-05-08 18:46 41.27383 28.72992 333 ft 19 kts 358°
2026-05-08 18:46 41.27521 28.72987 333 ft 20 kts 359°
2026-05-08 18:47 41.27668 28.72982 333 ft 23 kts 358°
2026-05-08 18:47 41.27849 28.72979 333 ft 27 kts
2026-05-08 18:47 41.28034 28.72981 333 ft 26 kts 358°
2026-05-08 18:47 41.28214 28.72976 333 ft 25 kts 360°
2026-05-08 18:48 41.28389 28.72971 333 ft 24 kts
2026-05-08 18:48 41.28558 28.72965 333 ft 23 kts 356°
2026-05-08 18:48 41.28720 28.72961 333 ft 23 kts 359°
2026-05-08 18:48 41.28881 28.72960 333 ft 22 kts 358°
2026-05-08 18:49 41.29040 28.72955 333 ft 22 kts 360°
2026-05-08 18:49 41.29195 28.72953 333 ft 22 kts 360°
2026-05-08 18:49 41.29353 28.72950 333 ft 22 kts 359°
2026-05-08 18:49 41.29475 28.72936 333 ft 3 kts 334°
2026-05-08 18:50 41.29478 28.72934 333 ft 0 kts 324°
2026-05-08 18:50 41.29492 28.72905 333 ft 5 kts 290°
2026-05-08 18:51 41.29493 28.72897 333 ft 0 kts 281°
2026-05-08 18:52 41.29493 28.72820 333 ft 31 kts 269°
2026-05-08 18:52 41.29490 28.72536 333 ft 20 kts 269°
2026-05-08 18:52 41.29443 28.72458 333 ft 8 kts 185°
2026-05-08 18:53 41.29428 28.72459 333 ft 1 kts 175°
2026-05-08 18:53 41.29420 28.72460 333 ft 0 kts 175°
2026-05-08 18:55 41.29418 28.72460 333 ft 1 kts 175°
2026-05-08 18:55 41.29298 28.72465 333 ft 53 kts 180°
2026-05-08 18:55 41.28664 28.72477 333 ft 128 kts 180°
2026-05-08 18:56 41.27649 28.72508 699 ft 154 kts 178°
2026-05-08 18:56 41.26641 28.72600 1589 ft 146 kts 179°
2026-05-08 18:56 41.25641 28.72735 2392 ft 146 kts 175°
2026-05-08 18:56 41.24614 28.72623 2993 ft 158 kts 198°
2026-05-08 18:57 41.23544 28.72104 3582 ft 174 kts 191°
2026-05-08 18:57 41.22716 28.72137 3959 ft 188 kts 167°
2026-05-08 18:57 41.21252 28.73640 4773 ft 217 kts 136°
2026-05-08 18:57 41.20042 28.74907 5324 ft 233 kts 163°
2026-05-08 18:58 41.18434 28.74930 6122 ft 242 kts 200°
2026-05-08 18:58 41.17135 28.73546 7121 ft 250 kts 234°
2026-05-08 18:58 41.16532 28.71367 7904 ft 269 kts 260°
2026-05-08 18:58 41.16798 28.68871 8730 ft 287 kts 290°
2026-05-08 18:59 41.18057 28.66790 9675 ft 300 kts 323°
2026-05-08 18:59 41.20001 28.65838 10529 ft 309 kts 354°
2026-05-08 18:59 41.22162 28.66221 11133 ft 324 kts 18°
2026-05-08 18:59 41.24313 28.67296 11625 ft 341 kts 23°
2026-05-08 19:00 41.26562 28.68558 12035 ft 359 kts 23°
2026-05-08 19:00 41.28947 28.69867 12445 ft 377 kts 22°
2026-05-08 19:00 41.31397 28.71162 13127 ft 384 kts 21°
2026-05-08 19:00 41.33885 28.72447 13891 ft 388 kts 21°
2026-05-08 19:01 41.36406 28.73725 14650 ft 391 kts 21°
2026-05-08 19:01 41.38952 28.75005 15390 ft 395 kts 20°
2026-05-08 19:01 41.41528 28.76295 16104 ft 398 kts 20°
2026-05-08 19:01 41.44119 28.77589 16838 ft 402 kts 20°
2026-05-08 19:02 41.46735 28.78896 17509 ft 406 kts 20°
2026-05-08 19:02 41.49414 28.80235 18150 ft 410 kts 20°
2026-05-08 19:02 41.52087 28.81573 18789 ft 414 kts 20°
2026-05-08 19:02 41.54778 28.82919 19471 ft 416 kts 20°
2026-05-08 19:03 41.57475 28.84270 20098 ft 419 kts 20°
2026-05-08 19:03 41.60222 28.85646 20697 ft 423 kts 20°
2026-05-08 19:03 41.62995 28.87036 21302 ft 426 kts 19°
2026-05-08 19:03 41.65772 28.88429 21874 ft 429 kts 19°
2026-05-08 19:04 41.68564 28.89829 22437 ft 431 kts 19°
2026-05-08 19:04 41.71345 28.91225 22978 ft 434 kts 19°
2026-05-08 19:04 41.74200 28.92660 23510 ft 437 kts 19°
2026-05-08 19:04 41.77052 28.94094 23924 ft 440 kts 19°
2026-05-08 19:05 41.79884 28.95519 24036 ft 441 kts 19°
2026-05-08 19:05 41.82784 28.96980 24047 ft 440 kts 19°
2026-05-08 19:05 41.85623 28.98412 24051 ft 440 kts 19°
2026-05-08 19:05 41.88511 28.99869 24053 ft 440 kts 19°
2026-05-08 19:06 41.91371 29.01316 24054 ft 440 kts 19°
2026-05-08 19:06 41.94232 29.02765 24054 ft 440 kts 19°
2026-05-08 19:06 41.97095 29.04214 24054 ft 440 kts 19°
2026-05-08 19:06 41.99919 29.05645 24055 ft 440 kts 19°
2026-05-08 19:07 42.02813 29.07111 24054 ft 439 kts 19°
2026-05-08 19:07 42.05663 29.08558 24057 ft 439 kts 19°
2026-05-08 19:07 42.08476 29.09988 24056 ft 439 kts 19°
2026-05-08 19:07 42.11344 29.11448 24053 ft 439 kts 19°
2026-05-08 19:08 42.14259 29.12762 24046 ft 437 kts 11°
2026-05-08 19:08 42.17263 29.13107 24048 ft 433 kts 355°
2026-05-08 19:08 42.20186 29.12357 24050 ft 430 kts 339°
2026-05-08 19:08 42.22924 29.10782 24058 ft 429 kts 333°
2026-05-08 19:09 42.25617 29.08972 24050 ft 428 kts 327°
2026-05-08 19:09 42.27919 29.06459 24051 ft 426 kts 314°
2026-05-08 19:09 42.29947 29.03607 24049 ft 426 kts 311°
2026-05-08 19:09 42.31946 29.00678 24049 ft 426 kts 311°
2026-05-08 19:10 42.33964 28.97739 24045 ft 427 kts 311°
2026-05-08 19:10 42.35991 28.94827 24045 ft 426 kts 311°
2026-05-08 19:10 42.38028 28.91935 24048 ft 426 kts 312°
2026-05-08 19:10 42.40071 28.89053 24048 ft 426 kts 312°
2026-05-08 19:11 42.42130 28.86160 24043 ft 426 kts 312°
2026-05-08 19:11 42.44183 28.83281 24040 ft 426 kts 313°
2026-05-08 19:11 42.46227 28.80417 24039 ft 426 kts 313°
2026-05-08 19:11 42.48298 28.77514 24035 ft 426 kts 312°
2026-05-08 19:12 42.50335 28.74657 24039 ft 426 kts 313°
2026-05-08 19:12 42.52407 28.71749 24039 ft 426 kts 313°
2026-05-08 19:12 42.54460 28.68864 24039 ft 426 kts 313°
2026-05-08 19:12 42.56512 28.65980 24040 ft 426 kts 312°
2026-05-08 19:13 42.58549 28.63113 24040 ft 426 kts 312°
2026-05-08 19:13 42.60607 28.60209 24042 ft 426 kts 312°
2026-05-08 19:13 42.62673 28.57295 24023 ft 427 kts 312°
2026-05-08 19:13 42.64704 28.54427 23764 ft 425 kts 312°
2026-05-08 19:14 42.66748 28.51537 23511 ft 423 kts 313°
2026-05-08 19:14 42.68761 28.48688 23262 ft 422 kts 313°
2026-05-08 19:14 42.70795 28.45807 23014 ft 420 kts 313°
2026-05-08 19:14 42.72796 28.42971 22741 ft 419 kts 313°
2026-05-08 19:15 42.74804 28.40122 22415 ft 418 kts 313°
2026-05-08 19:15 42.76815 28.37265 21980 ft 416 kts 313°
2026-05-08 19:15 42.78798 28.34444 21479 ft 412 kts 312°
2026-05-08 19:15 42.80765 28.31633 20942 ft 409 kts 311°
2026-05-08 19:16 42.82718 28.28838 20396 ft 407 kts 311°
2026-05-08 19:16 42.84662 28.26055 19839 ft 405 kts 311°
2026-05-08 19:16 42.86591 28.23293 19281 ft 404 kts 312°
2026-05-08 19:16 42.88511 28.20546 18721 ft 403 kts 312°
2026-05-08 19:17 42.90441 28.17783 18167 ft 401 kts 312°
2026-05-08 19:17 42.92360 28.15033 17613 ft 400 kts 312°
2026-05-08 19:17 42.94243 28.12334 17075 ft 399 kts 312°
2026-05-08 19:17 42.96144 28.09605 16524 ft 397 kts 312°
2026-05-08 19:18 42.98033 28.06891 15987 ft 395 kts 312°
2026-05-08 19:18 42.99937 28.04152 15455 ft 393 kts 312°
2026-05-08 19:18 43.01790 28.01485 14909 ft 391 kts 312°
2026-05-08 19:18 43.03622 27.98846 14369 ft 378 kts 313°
2026-05-08 19:19 43.05405 27.96275 13842 ft 367 kts 313°
2026-05-08 19:19 43.07128 27.93790 12903 ft 362 kts 313°
2026-05-08 19:19 43.08858 27.91291 11548 ft 365 kts 313°
2026-05-08 19:19 43.10582 27.88800 10428 ft 363 kts 313°
2026-05-08 19:20 43.12318 27.86309 9438 ft 358 kts 313°
2026-05-08 19:20 43.13406 27.84661 8955 ft 349 kts 307°
2026-05-08 19:20 43.14849 27.80979 8295 ft 319 kts 286°
2026-05-08 19:20 43.15289 27.78116 7883 ft 298 kts 275°
2026-05-08 19:21 43.15521 27.75362 7419 ft 283 kts 273°
2026-05-08 19:21 43.15715 27.72729 6730 ft 278 kts 274°
2026-05-08 19:21 43.15918 27.70165 6062 ft 274 kts 274°
2026-05-08 19:21 43.16136 27.67587 5404 ft 269 kts 275°
2026-05-08 19:22 43.16351 27.65094 4770 ft 264 kts 275°
2026-05-08 19:22 43.16569 27.62619 4242 ft 258 kts 274°
2026-05-08 19:22 43.16781 27.60208 4012 ft 245 kts 274°
2026-05-08 19:22 43.16975 27.58006 3999 ft 226 kts 274°
2026-05-08 19:23 43.17161 27.55860 4002 ft 225 kts 274°
2026-05-08 19:23 43.17344 27.53742 3997 ft 225 kts 273°
2026-05-08 19:23 43.17526 27.51604 4002 ft 225 kts 273°
2026-05-08 19:23 43.17706 27.49478 4000 ft 225 kts 274°
2026-05-08 19:24 43.17907 27.47350 3996 ft 226 kts 279°
2026-05-08 19:24 43.18662 27.45474 3959 ft 235 kts 317°
2026-05-08 19:24 43.20183 27.44594 3972 ft 243 kts 353°
2026-05-08 19:24 43.21853 27.44939 3981 ft 245 kts 22°
2026-05-08 19:25 43.23345 27.45906 3987 ft 234 kts 27°
2026-05-08 19:25 43.24774 27.46890 3976 ft 222 kts 26°
2026-05-08 19:25 43.25996 27.48025 3956 ft 209 kts 54°
2026-05-08 19:25 43.26498 27.49730 4016 ft 180 kts 93°
2026-05-08 19:26 43.26299 27.51302 4011 ft 158 kts 111°
2026-05-08 19:26 43.26009 27.52708 3995 ft 148 kts 110°
2026-05-08 19:26 43.25798 27.54022 3959 ft 139 kts 105°
2026-05-08 19:26 43.25657 27.55341 3829 ft 139 kts 103°
2026-05-08 19:27 43.25536 27.56652 3644 ft 139 kts 103°
2026-05-08 19:27 43.25417 27.57962 3467 ft 139 kts 103°
2026-05-08 19:27 43.25299 27.59268 3288 ft 139 kts 103°
2026-05-08 19:27 43.25178 27.60596 3107 ft 139 kts 103°
2026-05-08 19:28 43.25061 27.61900 2929 ft 139 kts 103°
2026-05-08 19:28 43.24941 27.63212 2752 ft 138 kts 103°
2026-05-08 19:28 43.24823 27.64513 2571 ft 137 kts 104°
2026-05-08 19:28 43.24704 27.65818 2388 ft 137 kts 103°
2026-05-08 19:29 43.24588 27.67096 2209 ft 136 kts 103°
2026-05-08 19:29 43.24471 27.68389 2026 ft 136 kts 103°
2026-05-08 19:29 43.24354 27.69674 1851 ft 136 kts 103°
2026-05-08 19:29 43.24238 27.70965 1674 ft 135 kts 103°
2026-05-08 19:30 43.24123 27.72234 1494 ft 133 kts 103°
2026-05-08 19:30 43.24010 27.73479 1317 ft 131 kts 102°
2026-05-08 19:30 43.23894 27.74722 1144 ft 130 kts 102°
2026-05-08 19:30 43.23786 27.75940 973 ft 128 kts 101°
2026-05-08 19:31 43.23675 27.77137 784 ft 127 kts 99°
2026-05-08 19:31 43.23574 27.78328 605 ft 124 kts 99°
2026-05-08 19:31 43.23472 27.79491 445 ft 122 kts 99°
2026-05-08 19:31 43.23369 27.80625 303 ft 120 kts 99°
2026-05-08 19:32 43.23262 27.81787 250 ft 118 kts 98°
2026-05-08 19:32 43.23169 27.82792 237 ft 89 kts 96°
2026-05-08 19:32 43.23115 27.83405 237 ft 39 kts 96°
2026-05-08 19:32 43.23098 27.83594 237 ft 17 kts 97°
2026-05-08 19:33 43.23083 27.83763 237 ft 18 kts 97°
2026-05-08 19:33 43.23074 27.83933 237 ft 17 kts 85°
2026-05-08 19:33 43.23134 27.84069 237 ft 17 kts 26°
2026-05-08 19:33 43.23246 27.84083 237 ft 14 kts 336°
2026-05-08 19:34 43.23317 27.83981 237 ft 15 kts 292°
2026-05-08 19:34 43.23332 27.83832 237 ft 16 kts 277°
2026-05-08 19:34 43.23347 27.83672 237 ft 17 kts 278°
2026-05-08 19:34 43.23358 27.83503 237 ft 18 kts 276°
2026-05-08 19:35 43.23375 27.83366 237 ft 12 kts 292°
2026-05-08 19:35 43.23452 27.83332 237 ft 13 kts
2026-05-08 19:35 43.23524 27.83300 237 ft 9 kts 303°
2026-05-08 19:35 43.23541 27.83206 237 ft 11 kts 277°
2026-05-08 19:36 43.23543 27.83073 237 ft 15 kts 260°
2026-05-08 19:36 43.23538 27.82924 237 ft 16 kts 269°
2026-05-08 19:36 43.23539 27.82787 237 ft 8 kts 272°
2026-05-08 19:36 43.23562 27.82751 237 ft 5 kts 354°
2026-05-08 19:37 43.23596 27.82756 237 ft 0 kts